User: anonymous   Login
Location: Kelowna
(49.8880°N, 119.4960°W)
Time: 22:34:23
(UTC-07:00)
Language:

METEOR M2 - Orbit

View from above orbital plane
View from above orbital plane
View from above satellite
View from above satellite

Ground track
Ground track

The orbit data is extracted from the following two-line orbital elements,

1 40069U 14037A   24106.85399132  .00000326  00000-0  16957-3 0  9999
2 40069  98.4363 103.8829 0005865 167.7454 192.3867 14.20928569506770
Epoch (UTC): 15 April 2024 20:29:44
Eccentricity: 0.0005865
inclination: 98.4363°
perigee height: 818 km
apogee height: 826 km
right ascension of ascending node: 103.8829°
argument of perigee: 167.7454°
revolutions per day: 14.20928569
mean anomaly at epoch: 192.3867°
orbit number at epoch: 50677

The dashed part of the orbit path shows where the satellite is in the earth's shadow,  

DLR